• In Belarus
  • List of Countries
  • For 7 days
  • Water Temperature
  • Weather Map
  • Weather Widgets
  • user-avatar
    Login

    Hourly Weather Graz

    Today, 12 December, Thursday

    Time Temperature Precipitation Wind Pressure Humidity
    00:00 -2°C° 0 mm 0 mps 718 mmHg 56%
    01:00 -2°C° 0 mm 0 mps 718 mmHg 55%
    02:00 -2°C° 0 mm 0 mps 718 mmHg 55%
    03:00 -2°C° 0 mm 0 mps 717 mmHg 55%
    04:00 -2°C° 0 mm 0 mps 717 mmHg 55%
    05:00 -2°C° 0 mm 0 mps 717 mmHg 55%
    06:00 -2°C° 0 mm 0 mps 717 mmHg 54%
    07:00 -2°C° 0 mm 0 mps 717 mmHg 51%
    08:00 -1°C° 0 mm 0 mps 717 mmHg 57%
    09:00 -1°C° 0 mm 0 mps 717 mmHg 63%
    10:00 +1°C° 0 mm 1 mps 717 mmHg 69%
    11:00 +1°C° 0 mm 0 mps 717 mmHg 70%
    12:00 +1°C° 0 mm 0 mps 716 mmHg 71%
    13:00 +2°C° 0 mm 0 mps 716 mmHg 69%
    14:00 +1°C° 0 mm 0 mps 716 mmHg 76%
    15:00 +1°C° 0 mm 0 mps 715 mmHg 83%
    16:00 0°C° 0 mm 0 mps 714 mmHg 91%
    17:00 0°C° 0.1 mm 0 mps 714 mmHg 92%
    18:00 0°C° 0.1 mm 0 mps 714 mmHg 93%
    19:00 0°C° 0.1 mm 0 mps 714 mmHg 94%
    20:00 0°C° 0.1 mm 0 mps 714 mmHg 95%
    21:00 0°C° 0.1 mm 0 mps 713 mmHg 96%
    22:00 0°C° 0.1 mm 0 mps 713 mmHg 97%
    23:00 -1°C° 0.1 mm 0 mps 712 mmHg 97%

    Tomorrow, 13 December, Friday

    Time Temperature Precipitation Wind Pressure Humidity
    00:00 -1°C° 0.1 mm 0 mps 712 mmHg 97%
    01:00 -1°C° 0.1 mm 0 mps 711 mmHg 96%
    02:00 -1°C° 0 mm 0 mps 710 mmHg 97%
    03:00 -1°C° 0 mm 1 mps 709 mmHg 97%
    04:00 -1°C° 0 mm 1 mps 708 mmHg 97%
    05:00 -1°C° 0 mm 1 mps 707 mmHg 96%
    06:00 -1°C° 0 mm 1 mps 707 mmHg 95%
    07:00 -1°C° 0 mm 1 mps 706 mmHg 94%
    08:00 0°C° 0 mm 1 mps 705 mmHg 90%
    09:00 0°C° 0 mm 1 mps 705 mmHg 86%
    10:00 +1°C° 0 mm 1 mps 704 mmHg 83%
    11:00 +2°C° 0 mm 1 mps 703 mmHg 79%
    12:00 +2°C° 0 mm 1 mps 703 mmHg 76%
    13:00 +2°C° 0 mm 2 mps 703 mmHg 72%
    14:00 +3°C° 0 mm 1 mps 702 mmHg 76%
    15:00 +2°C° 0 mm 1 mps 702 mmHg 80%
    16:00 +1°C° 0 mm 0 mps 702 mmHg 83%
    17:00 +2°C° 1 mm 1 mps 702 mmHg 88%
    18:00 +1°C° 1 mm 2 mps 702 mmHg 92%
    19:00 +1°C° 1 mm 2 mps 702 mmHg 96%
    20:00 +1°C° 1 mm 2 mps 703 mmHg 95%
    21:00 +1°C° 1 mm 2 mps 703 mmHg 94%
    22:00 +2°C° 1 mm 1 mps 704 mmHg 93%
    23:00 +2°C° 0.2 mm 1 mps 705 mmHg 92%

    Day after tomorrow, 14 December, Saturday

    Time Temperature Precipitation Wind Pressure Humidity
    00:00 +2°C° 0.2 mm 1 mps 706 mmHg 91%
    01:00 +2°C° 0.2 mm 1 mps 707 mmHg 91%
    02:00 +2°C° 0 mm 1 mps 707 mmHg 89%
    03:00 +2°C° 0 mm 1 mps 708 mmHg 88%
    04:00 +2°C° 0 mm 1 mps 709 mmHg 86%
    05:00 +2°C° 0 mm 1 mps 710 mmHg 86%
    06:00 +2°C° 0 mm 1 mps 710 mmHg 86%
    07:00 +1°C° 0 mm 1 mps 711 mmHg 85%
    08:00 +2°C° 0 mm 1 mps 712 mmHg 82%
    09:00 +3°C° 0 mm 1 mps 712 mmHg 78%
    10:00 +4°C° 0 mm 1 mps 713 mmHg 75%
    11:00 +5°C° 0 mm 1 mps 713 mmHg 73%
    12:00 +6°C° 0 mm 1 mps 714 mmHg 72%
    13:00 +6°C° 0 mm 1 mps 714 mmHg 70%
    14:00 +5°C° 0 mm 1 mps 715 mmHg 75%
    15:00 +4°C° 0 mm 1 mps 715 mmHg 80%
    16:00 +3°C° 0 mm 1 mps 715 mmHg 85%
    17:00 +2°C° 0 mm 1 mps 716 mmHg 83%
    18:00 +2°C° 0 mm 1 mps 717 mmHg 81%
    19:00 +1°C° 0 mm 1 mps 718 mmHg 79%
    20:00 +1°C° 0 mm 1 mps 719 mmHg 78%
    21:00 +1°C° 0 mm 1 mps 719 mmHg 77%
    22:00 +1°C° 0 mm 1 mps 720 mmHg 75%
    23:00 +2°C° 0 mm 1 mps 720 mmHg 75%

    15 December, Sunday

    Time Temperature Precipitation Wind Pressure Humidity
    00:00 +2°C° 0 mm 1 mps 720 mmHg 74%
    01:00 +2°C° 0 mm 1 mps 721 mmHg 73%
    02:00 +2°C° 0 mm 1 mps 720 mmHg 72%
    03:00 +2°C° 0 mm 1 mps 720 mmHg 72%
    04:00 +2°C° 0 mm 1 mps 720 mmHg 72%
    05:00 +1°C° 0 mm 1 mps 720 mmHg 72%
    06:00 +1°C° 0 mm 1 mps 720 mmHg 72%
    07:00 +1°C° 0 mm 1 mps 721 mmHg 73%
    08:00 +2°C° 0 mm 1 mps 721 mmHg 71%
    09:00 +3°C° 0 mm 1 mps 721 mmHg 70%
    10:00 +5°C° 0 mm 1 mps 722 mmHg 68%
    11:00 +5°C° 0 mm 1 mps 722 mmHg 68%
    12:00 +6°C° 0 mm 1 mps 722 mmHg 68%
    13:00 +7°C° 0 mm 1 mps 722 mmHg 68%
    14:00 +6°C° 0 mm 1 mps 722 mmHg 71%
    15:00 +5°C° 0 mm 1 mps 722 mmHg 74%
    16:00 +4°C° 0 mm 1 mps 723 mmHg 76%
    17:00 +4°C° 0 mm 1 mps 723 mmHg 76%
    18:00 +3°C° 0 mm 1 mps 723 mmHg 75%
    19:00 +3°C° 0 mm 1 mps 724 mmHg 74%
    20:00 +3°C° 0 mm 1 mps 724 mmHg 74%
    21:00 +3°C° 0 mm 1 mps 724 mmHg 74%
    22:00 +3°C° 0 mm 1 mps 725 mmHg 75%
    23:00 +3°C° 0 mm 1 mps 725 mmHg 76%

    16 December, Monday

    Time Temperature Precipitation Wind Pressure Humidity
    00:00 +3°C° 0 mm 1 mps 725 mmHg 78%
    01:00 +3°C° 0 mm 1 mps 725 mmHg 80%
    02:00 +3°C° 0 mm 1 mps 725 mmHg 82%
    03:00 +3°C° 0 mm 1 mps 725 mmHg 84%
    04:00 +3°C° 0 mm 1 mps 724 mmHg 86%
    05:00 +3°C° 0 mm 1 mps 724 mmHg 87%
    06:00 +2°C° 0 mm 1 mps 724 mmHg 88%
    07:00 +2°C° 0 mm 1 mps 724 mmHg 89%
    08:00 +4°C° 0 mm 1 mps 724 mmHg 87%
    09:00 +5°C° 0 mm 1 mps 724 mmHg 86%
    10:00 +6°C° 0 mm 1 mps 725 mmHg 84%
    11:00 +6°C° 0 mm 1 mps 724 mmHg 84%
    12:00 +7°C° 0 mm 1 mps 724 mmHg 83%
    13:00 +8°C° 0 mm 1 mps 724 mmHg 83%
    14:00 +6°C° 0 mm 2 mps 724 mmHg 86%
    15:00 +6°C° 0 mm 2 mps 723 mmHg 89%
    16:00 +5°C° 0 mm 2 mps 723 mmHg 92%
    17:00 +5°C° 0 mm 2 mps 723 mmHg 92%
    18:00 +5°C° 0 mm 2 mps 723 mmHg 92%
    19:00 +5°C° 0 mm 2 mps 723 mmHg 93%
    20:00 +5°C° 0 mm 2 mps 723 mmHg 93%
    21:00 +5°C° 0 mm 2 mps 723 mmHg 93%
    22:00 +5°C° 0 mm 2 mps 723 mmHg 93%
    23:00 +5°C° 0 mm 2 mps 723 mmHg 93%

    17 December, Tuesday

    Time Temperature Precipitation Wind Pressure Humidity
    00:00 +5°C° 0 mm 2 mps 723 mmHg 93%
    01:00 +5°C° 0 mm 2 mps 723 mmHg 93%
    02:00 +5°C° 0 mm 2 mps 723 mmHg 93%
    03:00 +5°C° 0 mm 2 mps 723 mmHg 93%
    04:00 +5°C° 0 mm 2 mps 723 mmHg 93%
    05:00 +5°C° 0 mm 2 mps 723 mmHg 93%
    06:00 +5°C° 0 mm 2 mps 723 mmHg 93%
    07:00 +5°C° 0 mm 2 mps 723 mmHg 93%
    08:00 +5°C° 0 mm 2 mps 723 mmHg 91%
    09:00 +6°C° 0 mm 2 mps 723 mmHg 90%
    10:00 +6°C° 0 mm 2 mps 724 mmHg 89%
    11:00 +7°C° 0 mm 2 mps 723 mmHg 88%
    12:00 +8°C° 0 mm 2 mps 723 mmHg 87%
    13:00 +9°C° 0 mm 2 mps 723 mmHg 86%
    14:00 +8°C° 0 mm 2 mps 723 mmHg 88%
    15:00 +8°C° 0 mm 2 mps 723 mmHg 89%
    16:00 +7°C° 0 mm 2 mps 723 mmHg 90%
    17:00 +7°C° 0 mm 2 mps 724 mmHg 91%
    18:00 +7°C° 0 mm 2 mps 724 mmHg 91%
    19:00 +7°C° 0 mm 3 mps 724 mmHg 91%
    20:00 +7°C° 0 mm 2 mps 725 mmHg 91%
    21:00 +7°C° 0 mm 2 mps 725 mmHg 92%
    22:00 +7°C° 0 mm 2 mps 725 mmHg 92%
    23:00 +6°C° 0 mm 2 mps 726 mmHg 93%
    Show more